[Iaude] MPEC F92: 2024 FT2 [a=2.24,e=0.59,i=1.6,H=25.3]
    mpec at cfa.harvard.edu 
    mpec at cfa.harvard.edu
       
    Thu Mar 28 01:18:21 EDT 2024
    
    
  
M.P.E.C. 2024-F92                                Issued 2024 March 28, 05:16 UT
     The Minor Planet Electronic Circulars contain information on unusual
         minor planets, routine data on comets and natural satellites,
         and occasional editorial announcements.  They are published
    on behalf of Division F of the International Astronomical Union by the
          Minor Planet Center, Smithsonian Astrophysical Observatory,
                          Cambridge, MA 02138, U.S.A.
			  
             Prepared using the Tamkin Foundation Computer Network
                              MPC at CFA.HARVARD.EDU
            URL https://www.minorplanetcenter.net/    ISSN 1523-6714
                                    2024 FT2                                    
Observations:
     K24F02T* C2024 03 17.47093112 01 02.671-02 49 52.64         22.10wXEF092F51
     K24F02T  C2024 03 17.48473712 01 03.031-02 50 10.40         22.62wXEF092F51
     K24F02T  C2024 03 17.49853412 01 03.414-02 50 28.18         22.13wXEF092F51
     K24F02T  C2024 03 17.51235812 01 03.800-02 50 45.97         22.71wXEF092F51
     K24F02T  C2024 03 17.60183412 01 06.622-02 52 41.05         21.98GVEF092F51
     K24F02T  C2024 03 17.60265512 01 06.653-02 52 42.10         22.34GVEF092F51
     K24F02T 1C2024 03 19.42460912 02 41.419-03 35 22.18         22.00GVEF092T12
     K24F02T 1C2024 03 19.43058912 02 41.619-03 35 31.21         22.06GVEF092T12
     K24F02T |C2024 03 28.08857012 15 56.570-09 26 19.50         20.6 GVEF092807
     K24F02T |C2024 03 28.09407012 15 57.270-09 26 41.10         20.6 GVEF092807
     K24F02T |C2024 03 28.09958012 15 57.960-09 27 02.50         20.6 GVEF092807
Observer details:
807 Cerro Tololo Observatory, La Serena.  Observers T. Linder, R. Holmes.
    0.61-m f/6.8 Ritchey-Chretien + CCD.
F51 Pan-STARRS 1, Haleakala.  Observers J. Herman, T. Lowe, P. Minguez, A.
    Schultz, I. Smith.  Measurers K. Chambers, T. de Boer, J. Fairlamb, H.
    Gao, M. Huber, C.-C. Lin, E. Magnier, Y. Ramanjooloo, R. Wainscoat, R.
    Weryk.  1.8-m Ritchey-Chretien + CCD.
T12 University of Hawaii 88-inch telescope, Maunakea.  Observer J. Fairlamb.
    Measurers R. Weryk, J. Fairlamb, Y. Ramanjooloo, R. Wainscoat.  2.24-m
    f/10.1 reflector + CCD.
Orbital elements:
2024 FT2                                                 Earth MOID = 0.0185 AU
Epoch 2024 Mar. 31.0 TT = JDT 2460400.5                 MPC                     
M 347.82877              (2000.0)            P               Q                  
n   0.29490248     Peri.  258.01723     -0.46638010     +0.88455070             
a   2.2353752      Node   344.17626     -0.80016964     -0.42558062             
e   0.5854248      Incl.    1.62325     -0.37711822     -0.19092197             
P   3.34           H   25.39          G   0.15           U   9                  
Residuals in seconds of arc
240317 F51  0.1+  0.1+    240317 F51  0.1-  0.1-    240328 807  0.1-  0.1-
240317 F51  0.1-  0.0     240317 F51  0.0   0.1-    240328 807  0.0   0.1-
240317 F51  0.1-  0.0     240319 T12  0.0   0.0     240328 807  0.0   0.2+
240317 F51  0.1-  0.1-    240319 T12  0.0   0.0
Ephemeris:
2024 FT2                 a,e,i = 2.24, 0.59, 2                   q = 0.9267
Date    TT    R. A. (2000) Decl.     Delta      r    Elong.  Phase     V
2024 02 27    11 50 47.4 +01 10 10   0.3527  1.3272   160.1    14.7    24.6
...
2024 03 13    11 58 06.9 -01 28 30   0.2152  1.2076   172.3     6.4    23.0
...
2024 03 21    12 04 13.8 -04 17 48   0.1517  1.1474   175.9     3.6    21.9
...
2024 03 27    12 13 20.5 -08 21 15   0.1077  1.1049   173.7     5.7    21.2
2024 03 28    12 15 40.0 -09 21 08   0.1007  1.0981   173.0     6.4    21.1
2024 03 29    12 18 21.7 -10 29 33   0.09375 1.0913   172.2     7.1    21.0
...
2024 04 04    12 50 27.6 -22 49 30   0.05500 1.0528   162.8    16.3    20.1
...
2024 04 12    19 15 37.3 -57 23 47   0.03190 1.0075    98.2    80.0    20.7
...
2024 04 27    23 09 00.1 -17 43 47   0.1166  0.9468    56.3   117.8    25.3
A. U. Tomatic                (C) Copyright 2024 MPC           M.P.E.C. 2024-F92
    
    
More information about the Iaude
mailing list